This is the latest recevied weather packets stored in our database for station/object OE6JUE. If no packets are shown the sender has not sent any weather packets the latest 10 day(s).
| Time | Temp. | Humidity | Pressure | Rain* | Wind** | Luminosity | Snow |
|---|---|---|---|---|---|---|---|
| 1788609838 | 18.89° C | 86% | 1022.4 hPa | 2.29 mm | - | - | - |
| 1788609538 | 18.89° C | 85% | 1022.5 hPa | 2.29 mm | - | - | - |
| 1788609238 | 18.89° C | 84% | 1022.4 hPa | 2.29 mm | - | - | - |
| 1788608938 | 18.33° C | 83% | 1022.4 hPa | 2.03 mm | - | - | - |
| 1788608638 | 18.89° C | 81% | 1022.5 hPa | 2.03 mm | - | - | - |
| 1788608338 | 19.44° C | 76% | 1022.4 hPa | 2.03 mm | - | - | - |
| 1788608038 | 20° C | 72% | 1022.3 hPa | 1.78 mm | - | - | - |
| 1788607738 | 21.67° C | 60% | 1022 hPa | 1.27 mm | - | - | - |
| 1788607438 | 22.22° C | 55% | 1022.3 hPa | 0 mm | - | - | - |
| 1788607139 | 22.78° C | 51% | 1022.5 hPa | 0 mm | - | - | - |
| 1788606838 | 22.78° C | 49% | 1022 hPa | 0 mm | - | - | - |
| 1788606538 | 23.33° C | 48% | 1021.8 hPa | 0 mm | - | - | - |
| 1788606238 | 23.33° C | 48% | 1021.8 hPa | 0 mm | - | - | - |
| 1788605938 | 24.44° C | 47% | 1021.8 hPa | 0 mm | - | - | - |
| 1788605638 | 24.44° C | 47% | 1021.7 hPa | 0 mm | - | - | - |
| 1788605338 | 24.44° C | 47% | 1021.7 hPa | 0 mm | - | - | - |
| 1788605039 | 24.44° C | 48% | 1021.7 hPa | 0 mm | - | - | - |
| 1788604739 | 23.89° C | 50% | 1021.7 hPa | 0 mm | - | - | - |
| 1788604438 | 23.33° C | 50% | 1021.7 hPa | 0 mm | - | - | - |
| 1788604138 | 23.33° C | 49% | 1021.9 hPa | 0 mm | - | - | - |
| 1788603838 | 23.33° C | 47% | 1021.8 hPa | 0 mm | - | - | - |
| 1788603538 | 23.33° C | 48% | 1021.7 hPa | 0 mm | - | - | - |
| 1788603238 | 23.89° C | 46% | 1021.8 hPa | 0 mm | - | - | - |
| 1788602939 | 24.44° C | 46% | 1021.7 hPa | 0 mm | - | - | - |
| 1788602638 | 25° C | 45% | 1021.8 hPa | 0 mm | - | - | - |
* Rain latest hour (hover to see other rain measurements)
** Current wind speed in m/s (hover to see current wind gust speed)